[[{"header":{"parameterUnit":"m.s-1","parameterCategory":1,"la1":30.2991,"la2":30.254,"lo1":-89.0895,"lo2":-89.0444,"dy":0.0017,"dx":0.0017,"nx":28,"ny":28,"refTime":"2026-02-03T09:00:00:Z","depth":0,"parameterNumber":2,"parameterNumberName":"U-component_of_WINDS"},"data":[0,0,0,0,0,0,0,0,0,0,0,0,0,0,0,0,0,0,0,0,0,0,0,0,0,0,0,0,0,0,0,0,0,0,0,0,0,0,0,0,0,0,0,0,0,0,0,0,0,0,0,0,0,0,0,0,0,0,0.4544,0.4545,0,0.4609,0.461,0.4611,0.4625,0.4625,0.4624,0.4624,0.4688,0.4691,0.4693,0,0,0,0,0,0,0,0,0,0,0,0,0,0.4429,0.4431,0.4544,0.4545,0.4546,0.4609,0.461,0.4611,0.4625,0.4625,0.4624,0.4624,0.4688,0.469,0.4693,0,0,0,0,0,0,0,0,0,0,0,0,0,0.4485,0.4432,0.4544,0.4561,0.4563,0.4609,0.461,0.4611,0.4625,0.4625,0.4624,0.4623,0.4687,0.469,0.4693,0.4727,0,0,0.4703,0.4704,0,0,0,0,0,0,0,0,0.4482,0.4489,0.4557,0.456,0.4562,0.4609,0.4593,0.465,0.4626,0.4602,0.4624,0.4623,0.4662,0.4667,0.4681,0.473,0.4733,0.4703,0.4705,0.4707,0.4708,0,0,0,0,0,0,0,0.4478,0.4487,0.457,0.4558,0.4561,0.4564,0.4571,0.4604,0.4635,0.4604,0.4605,0.4612,0.4663,0.4678,0.4683,0.4734,0.4703,0.4706,0.4708,0.4709,0.4812,0.4813,0,0,0,0,0,0,0.4472,0.4483,0.4568,0.4572,0.452,0.4567,0.4575,0.4594,0.4635,0.464,0.4613,0.4613,0.4673,0.4679,0.4685,0.4726,0.4707,0.471,0.4712,0.4811,0.4812,0.4813,0,0,0,0,0,0,0.4469,0.4479,0.4565,0.4528,0.4539,0.4569,0.4591,0.4596,0.4611,0.4642,0.4647,0.4622,0.4673,0.4681,0.4716,0.4729,0.4711,0.4714,0.481,0.4811,0.4812,0.4809,0,0,0,0,0,0,0.4466,0.4478,0.4492,0.4528,0.4541,0.4596,0.4592,0.4598,0.4616,0.4617,0.4652,0.4657,0.4673,0.4711,0.4719,0.4733,0.4717,0.4809,0.4811,0.4812,0.4808,0.481,0.4811,0,0,0,0,0,0.4462,0.4488,0.4493,0.4503,0.4559,0.4597,0.4604,0.4622,0.4617,0.4631,0.4651,0.4656,0.4726,0.4715,0.4724,0.4738,0.4808,0.481,0.4812,0.4807,0.4809,0.4811,0,0,0,0,0,0,0.4452,0.4493,0.4499,0.4538,0.4564,0.4599,0.4617,0.4624,0.4651,0.465,0.4671,0.4679,0.4713,0.4729,0.4716,0.4772,0.4767,0.4771,0.476,0.4763,0.4764,0.4759,0.4719,0,0,0,0,0,0.4454,0.4482,0.4517,0.4548,0.4561,0.4586,0.4603,0.4615,0.4642,0.4653,0.4676,0.4701,0.4729,0.4747,0.4774,0.4811,0.4818,0.4825,0.4827,0.4828,0.483,0.485,0.4853,0.4819,0.4819,0.4819,0,0,0.4459,0.4486,0.4502,0.4546,0.4568,0.4595,0.4595,0.4625,0.4645,0.4657,0.4692,0.471,0.474,0.4776,0.4792,0.479,0.4842,0.483,0.4831,0.4833,0.4852,0.4855,0.4858,0.482,0.482,0.4819,0,0,0.4483,0.4506,0.4534,0.4555,0.4588,0.4605,0.4611,0.4646,0.4658,0.4694,0.4703,0.4727,0.4775,0.4796,0.4812,0.4843,0.4848,0.4851,0.4859,0.4878,0.488,0.4883,0.4892,0.4896,0.4854,0.4854,0.4854,0,0.4484,0.4527,0.4547,0.4576,0.4594,0.4608,0.4635,0.4655,0.4695,0.4707,0.4704,0.4764,0.4785,0.4825,0.4832,0.4846,0.4853,0.4846,0.4878,0.4881,0.4884,0.4893,0.4897,0.4854,0.4854,0.4854,0.4854,0,0.4527,0.4556,0.4575,0.4613,0.4634,0.4662,0.4685,0.4704,0.4713,0.473,0.4766,0.4792,0.4824,0.4834,0.4844,0.4876,0.4873,0.4875,0.4869,0.4887,0.4896,0.4899,0.4854,0.4854,0.4854,0.4854,0,0,0.4545,0.4594,0.46,0.4617,0.4654,0.4677,0.4705,0.4737,0.4752,0.4779,0.4802,0.4842,0.4843,0.4862,0.4874,0.489,0.4911,0.4889,0.489,0.4891,0.4946,0.4944,0.4948,0.4916,0.4916,0.4917,0.4943,0,0.4572,0.4623,0.4641,0.4683,0.471,0.4723,0.4747,0.4772,0.4788,0.4812,0.483,0.4858,0.4858,0.4869,0.4886,0.4905,0.4922,0.4904,0.4936,0.4937,0.4927,0.4953,0.4951,0.4975,0.4947,0.4948,0.4948,0,0.4609,0.4637,0.4682,0.4714,0.4726,0.4748,0.4778,0.4802,0.4829,0.484,0.4861,0.4872,0.4901,0.4895,0.4934,0.4921,0.4935,0.4946,0.4948,0.4951,0.4943,0.4955,0.4983,0.4986,0.4954,0.4954,0.4953,0,0.4616,0.4665,0.4697,0.4712,0.4751,0.4766,0.4783,0.481,0.4828,0.4855,0.4866,0.4895,0.4911,0.4933,0.4951,0.4945,0.4988,0.4984,0.4997,0.4996,0.5005,0.5004,0.5034,0.5016,0.5016,0.5016,0.5016,0,0.4643,0.4669,0.4701,0.4721,0.475,0.4771,0.4799,0.4817,0.4841,0.4864,0.4877,0.4898,0.4921,0.4945,0.496,0.4989,0.4996,0.5005,0.5008,0.5003,0.5002,0.5012,0.501,0.5017,0.5016,0.5016,0.5016,0,0.4655,0.4678,0.4714,0.4749,0.4758,0.4778,0.4807,0.4826,0.4843,0.4872,0.488,0.4906,0.4935,0.4956,0.4992,0.5002,0.5033,0.5037,0.5024,0.5025,0.5037,0.5035,0.5074,0.5079,0.5058,0.5059,0.5059,0,0.467,0.4691,0.4728,0.4744,0.4762,0.4788,0.4806,0.4827,0.4846,0.4879,0.4894,0.4923,0.4948,0.4993,0.5015,0.5043,0.5047,0.5058,0.5051,0.5045,0.5045,0.5043,0.5045,0.5059,0.5059,0.5059,0.5059,0,0.4694,0.4704,0.4731,0.4761,0.4782,0.4807,0.4832,0.4844,0.4869,0.4889,0.4919,0.4938,0.4976,0.5004,0.5034,0.5051,0.5059,0.5062,0.5066,0.506,0.5051,0.5055,0.5025,0.506,0.506,0.506,0.506,0.506,0.4708,0.4726,0.4755,0.4784,0.4804,0.4827,0.4847,0.4866,0.4892,0.4924,0.4935,0.4965,0.4992,0.5033,0.505,0.5073,0.5073,0.5079,0.5081,0.5082,0.5081,0.5049,0.5079,0.5079,0.5079,0.5079,0.5079,0,0.4731,0.475,0.4776,0.4811,0.4833,0.484,0.4867,0.4885,0.4912,0.4936,0.496,0.4994,0.5022,0.5046,0.5075,0.5089,0.5093,0.5095,0.5094,0.5098,0.508,0.5073,0.5091,0.5091,0.5091,0.5091,0.5091,0.5091,0.4746,0.4777,0.479,0.4832,0.4851,0.4881,0.4896,0.4917,0.4936,0.4973,0.4997,0.5013,0.5037,0.5067,0.5093,0.5099,0.5109,0.511,0.5117,0.51,0.5099,0.5097,0.5091,0.5112,0.5112,0.5132,0.5132,0.5132]},{"header":{"parameterUnit":"m.s-1","parameterCategory":1,"la1":30.2991,"la2":30.254,"lo1":-89.0895,"lo2":-89.0444,"dy":0.0017,"dx":0.0017,"nx":28,"ny":28,"refTime":"2026-02-03T09:00:00:Z","depth":0,"parameterNumber":3,"parameterNumberName":"V-component_of_WINDS"},"data":[0,0,0,0,0,0,0,0,0,0,0,0,0,0,0,0,0,0,0,0,0,0,0,0,0,0,0,0,0,0,0,0,0,0,0,0,0,0,0,0,0,0,0,0,0,0,0,0,0,0,0,0,0,0,0,0,0,0,3.2285,3.2287,0,3.2496,3.2499,3.2501,3.2505,3.2502,3.25,3.2497,3.2711,3.2718,3.2726,0,0,0,0,0,0,0,0,0,0,0,0,0,3.188,3.1888,3.2285,3.2287,3.229,3.2496,3.2499,3.2502,3.2505,3.2502,3.2499,3.2496,3.2708,3.2717,3.2727,0,0,0,0,0,0,0,0,0,0,0,0,0,3.207,3.189,3.2284,3.2317,3.2322,3.2495,3.2499,3.2503,3.2506,3.2502,3.2498,3.2494,3.2705,3.2717,3.2729,3.2883,0,0,3.2766,3.2771,0,0,0,0,0,0,0,0,3.2059,3.2085,3.2309,3.2315,3.2321,3.247,3.2435,3.263,3.2507,3.2436,3.2497,3.2492,3.2634,3.2651,3.27,3.2893,3.2902,3.2767,3.2774,3.278,3.2783,0,0,0,0,0,0,0,3.2046,3.2076,3.2368,3.2312,3.232,3.2319,3.2342,3.2472,3.2554,3.2442,3.2443,3.2468,3.2636,3.2688,3.2705,3.2905,3.2767,3.2777,3.2785,3.279,3.3235,3.324,0,0,0,0,0,0,3.2027,3.2065,3.2362,3.2375,3.2178,3.233,3.2355,3.2426,3.2553,3.2568,3.2471,3.2467,3.2669,3.269,3.2712,3.2901,3.278,3.2791,3.2798,3.3231,3.3236,3.3241,0,0,0,0,0,0,3.2018,3.2053,3.2353,3.222,3.2258,3.2341,3.2421,3.2432,3.2484,3.2575,3.2589,3.2509,3.2667,3.2695,3.2841,3.2909,3.2796,3.2808,3.3226,3.3233,3.3239,3.328,0,0,0,0,0,0,3.2007,3.205,3.2111,3.2222,3.2265,3.2479,3.2425,3.2439,3.2506,3.2503,3.2615,3.2629,3.2666,3.2822,3.2853,3.2923,3.2817,3.322,3.3229,3.3237,3.3273,3.3288,3.33,0,0,0,0,0,3.1992,3.2114,3.2114,3.215,3.2343,3.2483,3.2508,3.2549,3.2511,3.2572,3.263,3.2626,3.2896,3.2837,3.2872,3.2947,3.3216,3.3226,3.3236,3.3267,3.3285,3.33,0,0,0,0,0,0,3.2008,3.2129,3.213,3.2292,3.2377,3.2484,3.2562,3.2566,3.2663,3.2657,3.2702,3.2727,3.2872,3.2924,3.2856,3.3103,3.3051,3.3069,3.3063,3.3081,3.3094,3.3078,3.2827,0,0,0,0,0,3.2031,3.2135,3.2235,3.2367,3.241,3.2479,3.2541,3.2565,3.2655,3.2691,3.276,3.2846,3.2951,3.3019,3.312,3.3281,3.3304,3.3349,3.3362,3.3373,3.3388,3.3476,3.3497,3.3275,3.3274,3.3274,0,0,3.2078,3.2157,3.222,3.2372,3.2442,3.2548,3.2509,3.2624,3.2703,3.2708,3.285,3.2903,3.3003,3.3157,3.3228,3.3205,3.3454,3.3386,3.3394,3.3403,3.3488,3.3509,3.3528,3.3281,3.328,3.3279,0,0,3.2218,3.2289,3.2406,3.2477,3.2582,3.2627,3.2655,3.2761,3.2797,3.294,3.2946,3.304,3.3219,3.329,3.3349,3.3515,3.3514,3.3546,3.3616,3.3702,3.3719,3.3735,3.3794,3.3814,3.3561,3.3561,3.3561,0,3.2263,3.2425,3.2466,3.2581,3.2648,3.2658,3.2777,3.2843,3.2975,3.302,3.2992,3.3217,3.3285,3.3455,3.3496,3.3543,3.3576,3.3534,3.3713,3.373,3.3745,3.3801,3.3823,3.3564,3.3564,3.3563,3.3563,0,3.2475,3.2587,3.2669,3.2798,3.2873,3.2989,3.3047,3.3119,3.3135,3.3182,3.3327,3.3409,3.3527,3.3569,3.3586,3.3741,3.3723,3.3704,3.3653,3.3769,3.3822,3.3844,3.3569,3.3567,3.3566,3.3566,0,0,3.2632,3.2781,3.2811,3.2869,3.2986,3.3072,3.3188,3.3304,3.3364,3.3455,3.3553,3.3704,3.3686,3.3754,3.3779,3.3854,3.3979,3.3825,3.3828,3.3851,3.4154,3.4168,3.4192,3.3979,3.3983,3.3987,3.4146,0,3.2784,3.2992,3.3032,3.3212,3.3316,3.3327,3.3427,3.3509,3.3556,3.3649,3.37,3.3807,3.3776,3.3817,3.3891,3.3948,3.4041,3.3937,3.4069,3.4074,3.4044,3.4221,3.4236,3.4382,3.4167,3.4171,3.4173,0,3.2991,3.3087,3.3278,3.338,3.3425,3.3515,3.3624,3.3713,3.3805,3.3834,3.3909,3.3926,3.4045,3.3989,3.4153,3.4082,3.4138,3.4174,3.4181,3.4195,3.413,3.4239,3.443,3.4451,3.4207,3.4204,3.4202,0,3.3086,3.3263,3.34,3.3449,3.3572,3.3635,3.3689,3.3777,3.3844,3.3938,3.3982,3.4089,3.4147,3.4229,3.4274,3.4229,3.4435,3.4382,3.4461,3.446,3.4504,3.4501,3.4707,3.4541,3.454,3.454,3.454,0,3.3252,3.3368,3.3444,3.3528,3.3658,3.3702,3.3829,3.3882,3.396,3.4054,3.4069,3.4157,3.421,3.4305,3.434,3.4471,3.4497,3.4523,3.4531,3.4522,3.4518,3.4559,3.455,3.4546,3.4545,3.4543,3.4542,0,3.338,3.3436,3.3586,3.369,3.3718,3.3809,3.3897,3.3979,3.4025,3.4143,3.4174,3.4246,3.4358,3.4411,3.4549,3.4573,3.4721,3.4722,3.469,3.4693,3.4769,3.4761,3.5008,3.5042,3.4854,3.4855,3.4857,0,3.3483,3.3573,3.3686,3.375,3.3806,3.3909,3.3977,3.4023,3.4094,3.4205,3.4273,3.4385,3.4478,3.4657,3.4721,3.4827,3.483,3.4909,3.4846,3.4834,3.4831,3.4825,3.4834,3.4921,3.4923,3.4924,3.4925,0,3.3659,3.3682,3.378,3.3888,3.397,3.4057,3.4142,3.4193,3.4253,3.4331,3.4446,3.4518,3.4659,3.4771,3.4881,3.4935,3.494,3.4945,3.4968,3.496,3.4938,3.4951,3.4721,3.4939,3.4938,3.4937,3.4936,3.4935,3.3778,3.3858,3.395,3.4058,3.4127,3.4207,3.4288,3.4345,3.4442,3.4561,3.4582,3.4705,3.4793,3.4942,3.4999,3.5095,3.5076,3.5111,3.512,3.5127,3.5131,3.4923,3.5115,3.5115,3.5114,3.5114,3.5114,0,3.3954,3.4014,3.4113,3.4233,3.4318,3.4316,3.441,3.4481,3.4589,3.4671,3.4762,3.4894,3.5002,3.5075,3.5184,3.5246,3.5251,3.5273,3.5269,3.5281,3.5142,3.511,3.5267,3.5267,3.5267,3.5267,3.5267,3.5267,3.4056,3.4191,3.4225,3.4393,3.4452,3.4573,3.4626,3.4699,3.4765,3.4912,3.5002,3.5049,3.5127,3.5242,3.5341,3.5359,3.5398,3.5421,3.5439,3.5307,3.5291,3.5276,3.5246,3.5429,3.5429,3.557,3.5571,3.5572]}]]